Wetterdaten: Woche 05.12.16 - 11.12.16 (KW49)
Datum Zeit Temperatur Luftfeuchte Luftdruck Niederschlag Windrichtung Sonnenschein Solar Wind
05.12.2016 00:00 -1,6 C 95 % 1027,2 hPa 0,0 l/m O-NO 0,00 h 0 W/m 2,3 km/h (1 Bft)
05.12.2016 01:00 -1,7 C 95 % 1027,2 hPa 0,0 l/m N 0,00 h 0 W/m 0,3 km/h (0 Bft)
05.12.2016 02:00 -1,8 C 96 % 1027,4 hPa 0,0 l/m O-NO 0,00 h 0 W/m 3,3 km/h (1 Bft)
05.12.2016 03:00 -2,0 C 96 % 1027,4 hPa 0,0 l/m O-NO 0,00 h 0 W/m 2,9 km/h (1 Bft)
05.12.2016 04:00 -2,2 C 96 % 1027,4 hPa 0,0 l/m O-NO 0,00 h 0 W/m 1,6 km/h (1 Bft)
05.12.2016 05:00 -2,4 C 97 % 1027,3 hPa 0,0 l/m O-NO 0,00 h 0 W/m 2,1 km/h (1 Bft)
05.12.2016 06:00 -2,4 C 97 % 1027,4 hPa 0,0 l/m N 0,00 h 0 W/m 0,7 km/h (0 Bft)
05.12.2016 07:00 -2,5 C 97 % 1027,5 hPa 0,0 l/m O-NO 0,00 h 0 W/m 0,9 km/h (0 Bft)
05.12.2016 08:00 -2,6 C 97 % 1027,8 hPa 0,0 l/m O-NO 0,00 h 14 W/m 2,4 km/h (1 Bft)
05.12.2016 09:00 -2,5 C 97 % 1028,2 hPa 0,0 l/m O-NO 0,00 h 42 W/m 3,2 km/h (1 Bft)
05.12.2016 10:00 -2,2 C 97 % 1028,4 hPa 0,0 l/m O-NO 0,00 h 77 W/m 4,8 km/h (1 Bft)
05.12.2016 11:00 -1,8 C 97 % 1028,4 hPa 0,0 l/m W-SW 0,00 h 132 W/m 7,2 km/h (2 Bft)
05.12.2016 12:00 -1,3 C 96 % 1028,1 hPa 0,0 l/m SW 0,00 h 121 W/m 7,3 km/h (2 Bft)
05.12.2016 13:00 -0,6 C 96 % 1028,0 hPa 0,0 l/m SW 0,00 h 117 W/m 7,6 km/h (2 Bft)
05.12.2016 14:00 -0,2 C 95 % 1028,0 hPa 0,0 l/m SW 0,00 h 72 W/m 8,3 km/h (2 Bft)
05.12.2016 15:00 -0,2 C 96 % 1028,0 hPa 0,0 l/m S-SW 0,00 h 34 W/m 8,3 km/h (2 Bft)
05.12.2016 16:00 -0,3 C 96 % 1028,1 hPa 0,0 l/m SW 0,00 h 7 W/m 5,6 km/h (1 Bft)
05.12.2016 17:00 -0,6 C 96 % 1028,3 hPa 0,0 l/m SW 0,00 h 0 W/m 5,6 km/h (1 Bft)
05.12.2016 18:00 -1,0 C 96 % 1028,5 hPa 0,0 l/m SW 0,00 h 0 W/m 7,1 km/h (2 Bft)
05.12.2016 19:00 -1,4 C 97 % 1028,8 hPa 0,0 l/m SW 0,00 h 0 W/m 6,4 km/h (2 Bft)
05.12.2016 20:00 -1,7 C 97 % 1029,0 hPa 0,0 l/m SW 0,00 h 0 W/m 6,4 km/h (2 Bft)
05.12.2016 21:00 -1,7 C 97 % 1029,1 hPa 0,0 l/m SW 0,00 h 0 W/m 7,1 km/h (2 Bft)
05.12.2016 22:00 -1,8 C 97 % 1029,1 hPa 0,0 l/m N 0,00 h 0 W/m 0,7 km/h (0 Bft)
05.12.2016 23:00 -2,1 C 97 % 1029,4 hPa 0,0 l/m N 0,00 h 0 W/m 0,0 km/h (0 Bft)
06.12.2016 00:00 -2,4 C 97 % 1029,3 hPa 0,0 l/m SW 0,00 h 0 W/m 1,7 km/h (1 Bft)
06.12.2016 01:00 -2,7 C 97 % 1029,4 hPa 0,0 l/m SW 0,00 h 0 W/m 2,3 km/h (1 Bft)
06.12.2016 02:00 -2,9 C 97 % 1029,5 hPa 0,0 l/m N 0,00 h 0 W/m 0,0 km/h (0 Bft)
06.12.2016 03:00 -3,1 C 97 % 1029,8 hPa 0,0 l/m SW 0,00 h 0 W/m 2,1 km/h (1 Bft)
06.12.2016 04:00 -3,2 C 98 % 1030,1 hPa 0,0 l/m SW 0,00 h 0 W/m 0,7 km/h (0 Bft)
06.12.2016 05:00 -3,4 C 97 % 1029,9 hPa 0,0 l/m SW 0,00 h 0 W/m 2,1 km/h (1 Bft)
06.12.2016 06:00 -3,6 C 98 % 1030,1 hPa 0,0 l/m N 0,00 h 0 W/m 0,4 km/h (0 Bft)
06.12.2016 07:00 -3,9 C 97 % 1030,5 hPa 0,0 l/m N 0,00 h 5 W/m 0,4 km/h (0 Bft)
06.12.2016 08:00 -4,3 C 97 % 1031,2 hPa 0,0 l/m SW 0,08 h 30 W/m 2,3 km/h (1 Bft)
06.12.2016 09:00 -3,7 C 98 % 1031,6 hPa 0,0 l/m SW 0,00 h 92 W/m 4,0 km/h (1 Bft)
06.12.2016 10:00 -2,1 C 98 % 1032,2 hPa 0,0 l/m SW 0,75 h 200 W/m 2,3 km/h (1 Bft)
06.12.2016 11:00 -0,3 C 99 % 1032,0 hPa 0,0 l/m SW 1,00 h 281 W/m 5,9 km/h (2 Bft)
06.12.2016 12:00 2,0 C 95 % 1031,5 hPa 0,0 l/m SW 1,00 h 293 W/m 5,1 km/h (1 Bft)
06.12.2016 13:00 3,5 C 90 % 1031,1 hPa 0,0 l/m N 1,00 h 243 W/m 1,5 km/h (1 Bft)
06.12.2016 14:00 4,3 C 88 % 1031,0 hPa 0,0 l/m N 0,75 h 140 W/m 0,5 km/h (0 Bft)
06.12.2016 15:00 3,9 C 89 % 1031,4 hPa 0,0 l/m N 0,00 h 37 W/m 0,0 km/h (0 Bft)
06.12.2016 16:00 2,0 C 91 % 1032,1 hPa 0,0 l/m N 0,08 h 10 W/m 0,0 km/h (0 Bft)
06.12.2016 17:00 0,7 C 91 % 1032,6 hPa 0,0 l/m N 0,00 h 0 W/m 0,0 km/h (0 Bft)
06.12.2016 18:00 -0,5 C 92 % 1032,7 hPa 0,0 l/m N 0,00 h 0 W/m 0,0 km/h (0 Bft)
06.12.2016 19:00 -1,3 C 92 % 1033,0 hPa 0,0 l/m N 0,00 h 0 W/m 0,0 km/h (0 Bft)
06.12.2016 20:00 -1,8 C 93 % 1033,0 hPa 0,0 l/m N 0,00 h 0 W/m 0,0 km/h (0 Bft)
06.12.2016 21:00 -2,4 C 93 % 1032,9 hPa 0,0 l/m N 0,00 h 0 W/m 0,0 km/h (0 Bft)
06.12.2016 22:00 -2,6 C 94 % 1033,0 hPa 0,0 l/m W-NW 0,00 h 0 W/m 3,3 km/h (1 Bft)
06.12.2016 23:00 -2,2 C 95 % 1033,2 hPa 0,0 l/m NW 0,00 h 0 W/m 4,0 km/h (1 Bft)
07.12.2016 00:00 -2,8 C 95 % 1033,3 hPa 0,0 l/m NW 0,00 h 0 W/m 0,7 km/h (0 Bft)
07.12.2016 01:00 -3,4 C 95 % 1033,2 hPa 0,0 l/m NW 0,00 h 0 W/m 4,4 km/h (1 Bft)
07.12.2016 02:00 -3,7 C 95 % 1033,8 hPa 0,0 l/m N-NW 0,00 h 0 W/m 5,1 km/h (1 Bft)
07.12.2016 03:00 -4,3 C 96 % 1034,3 hPa 0,0 l/m N-NW 0,00 h 0 W/m 3,1 km/h (1 Bft)
07.12.2016 04:00 -4,6 C 96 % 1034,7 hPa 0,0 l/m N 0,00 h 0 W/m 1,6 km/h (1 Bft)
07.12.2016 05:00 -4,9 C 96 % 1034,8 hPa 0,0 l/m N-NW 0,00 h 0 W/m 3,5 km/h (1 Bft)
07.12.2016 06:00 -5,2 C 96 % 1034,9 hPa 0,0 l/m N-NW 0,00 h 0 W/m 1,3 km/h (1 Bft)
07.12.2016 07:00 -5,2 C 96 % 1034,8 hPa 0,0 l/m N-NW 0,00 h 6 W/m 2,5 km/h (1 Bft)
07.12.2016 08:00 -5,3 C 96 % 1035,1 hPa 0,0 l/m N-NW 0,17 h 24 W/m 2,5 km/h (1 Bft)
07.12.2016 09:00 -5,0 C 96 % 1035,3 hPa 0,0 l/m N 0,17 h 85 W/m 0,5 km/h (0 Bft)
07.12.2016 10:00 -4,2 C 97 % 1035,5 hPa 0,0 l/m N-NW 0,50 h 155 W/m 0,9 km/h (0 Bft)
07.12.2016 11:00 -2,7 C 97 % 1034,9 hPa 0,2 l/m N 0,92 h 245 W/m 0,9 km/h (0 Bft)
07.12.2016 12:00 -1,4 C 96 % 1034,5 hPa 0,0 l/m N-NW 1,00 h 293 W/m 4,4 km/h (1 Bft)
07.12.2016 13:00 -1,3 C 96 % 1034,0 hPa 0,0 l/m N-NW 1,00 h 227 W/m 6,1 km/h (2 Bft)
07.12.2016 14:00 -1,2 C 96 % 1034,0 hPa 0,0 l/m N-NW 0,42 h 127 W/m 4,5 km/h (1 Bft)
07.12.2016 15:00 -0,6 C 96 % 1034,1 hPa 0,0 l/m N 0,00 h 46 W/m 0,0 km/h (0 Bft)
07.12.2016 16:00 -0,9 C 95 % 1034,8 hPa 0,0 l/m N-NW 0,33 h 15 W/m 3,9 km/h (1 Bft)
07.12.2016 17:00 -1,6 C 95 % 1035,4 hPa 0,0 l/m N-NW 0,00 h 0 W/m 2,5 km/h (1 Bft)
07.12.2016 18:00 -2,6 C 95 % 1035,9 hPa 0,0 l/m N-NW 0,00 h 0 W/m 2,1 km/h (1 Bft)
07.12.2016 19:00 -3,3 C 95 % 1036,4 hPa 0,0 l/m N-NW 0,00 h 0 W/m 0,0 km/h (0 Bft)
07.12.2016 20:00 -2,4 C 96 % 1036,8 hPa 0,0 l/m NW 0,00 h 0 W/m 7,9 km/h (2 Bft)
07.12.2016 21:00 -1,5 C 97 % 1036,8 hPa 0,0 l/m SW 0,00 h 0 W/m 14,6 km/h (3 Bft)
07.12.2016 22:00 -1,3 C 97 % 1036,8 hPa 0,0 l/m SW 0,00 h 0 W/m 14,9 km/h (3 Bft)
07.12.2016 23:00 -1,3 C 98 % 1036,8 hPa 0,0 l/m SW 0,00 h 0 W/m 12,5 km/h (3 Bft)
08.12.2016 00:00 -1,3 C 98 % 1036,6 hPa 0,0 l/m SW 0,00 h 0 W/m 8,0 km/h (2 Bft)
08.12.2016 01:00 -1,6 C 98 % 1036,2 hPa 0,0 l/m SW 0,00 h 0 W/m 6,3 km/h (2 Bft)
08.12.2016 02:00 -2,0 C 98 % 1036,1 hPa 0,0 l/m SW 0,00 h 0 W/m 7,5 km/h (2 Bft)
08.12.2016 03:00 -1,9 C 98 % 1036,3 hPa 0,0 l/m N 0,00 h 0 W/m 0,0 km/h (0 Bft)
08.12.2016 04:00 -2,0 C 98 % 1036,0 hPa 0,0 l/m SW 0,00 h 0 W/m 7,1 km/h (2 Bft)
08.12.2016 05:00 -2,2 C 98 % 1035,8 hPa 0,0 l/m S-SW 0,00 h 0 W/m 8,2 km/h (2 Bft)
08.12.2016 06:00 -2,5 C 98 % 1035,9 hPa 0,0 l/m S-SW 0,00 h 0 W/m 8,3 km/h (2 Bft)
08.12.2016 07:00 -2,2 C 98 % 1036,0 hPa 0,0 l/m S-SW 0,00 h 0 W/m 13,0 km/h (3 Bft)
08.12.2016 08:00 -2,1 C 98 % 1036,1 hPa 0,0 l/m S-SW 0,00 h 16 W/m 8,7 km/h (2 Bft)
08.12.2016 09:00 -2,0 C 98 % 1036,5 hPa 0,0 l/m S-SW 0,58 h 104 W/m 1,1 km/h (0 Bft)
08.12.2016 10:00 -2,0 C 98 % 1036,3 hPa 0,0 l/m S-SW 0,08 h 112 W/m 10,9 km/h (2 Bft)
08.12.2016 11:00 -1,3 C 99 % 1035,3 hPa 0,0 l/m S-SW 0,58 h 195 W/m 11,6 km/h (2 Bft)
08.12.2016 12:00 -0,2 C 99 % 1035,0 hPa 0,0 l/m S-SW 0,83 h 261 W/m 10,8 km/h (2 Bft)
08.12.2016 13:00 0,6 C 98 % 1034,6 hPa 0,0 l/m S-SW 1,00 h 227 W/m 8,6 km/h (2 Bft)
08.12.2016 14:00 1,7 C 94 % 1034,0 hPa 0,0 l/m S-SW 0,75 h 136 W/m 10,1 km/h (2 Bft)
08.12.2016 15:00 1,7 C 92 % 1033,8 hPa 0,0 l/m S-SW 0,00 h 35 W/m 5,0 km/h (1 Bft)
08.12.2016 16:00 1,1 C 92 % 1033,9 hPa 0,0 l/m N 0,08 h 9 W/m 2,1 km/h (1 Bft)
08.12.2016 17:00 0,0 C 92 % 1034,0 hPa 0,0 l/m N 0,00 h 0 W/m 0,0 km/h (0 Bft)
08.12.2016 18:00 -1,1 C 92 % 1034,3 hPa 0,0 l/m N 0,00 h 0 W/m 0,5 km/h (0 Bft)
08.12.2016 19:00 -1,7 C 93 % 1034,4 hPa 0,0 l/m N 0,00 h 0 W/m 0,4 km/h (0 Bft)
08.12.2016 20:00 -1,7 C 94 % 1034,2 hPa 0,0 l/m N 0,00 h 0 W/m 0,0 km/h (0 Bft)
08.12.2016 21:00 -2,0 C 94 % 1034,1 hPa 0,0 l/m N 0,00 h 0 W/m 0,0 km/h (0 Bft)
08.12.2016 22:00 -2,2 C 95 % 1034,0 hPa 0,0 l/m N 0,00 h 0 W/m 0,3 km/h (0 Bft)
08.12.2016 23:00 -2,4 C 95 % 1034,0 hPa 0,0 l/m N 0,00 h 0 W/m 0,0 km/h (0 Bft)
09.12.2016 00:00 -3,0 C 95 % 1033,7 hPa 0,0 l/m S-SW 0,00 h 0 W/m 0,0 km/h (0 Bft)
09.12.2016 01:00 -3,2 C 95 % 1033,8 hPa 0,0 l/m S-SW 0,00 h 0 W/m 1,9 km/h (1 Bft)
09.12.2016 02:00 -3,4 C 96 % 1033,5 hPa 0,0 l/m S-SW 0,00 h 0 W/m 6,7 km/h (2 Bft)
09.12.2016 03:00 -2,8 C 96 % 1033,4 hPa 0,0 l/m S-SW 0,00 h 0 W/m 10,7 km/h (2 Bft)
09.12.2016 04:00 -3,0 C 97 % 1033,8 hPa 0,0 l/m S-SW 0,00 h 0 W/m 6,4 km/h (2 Bft)
09.12.2016 05:00 -3,3 C 97 % 1033,8 hPa 0,0 l/m S-SW 0,00 h 0 W/m 6,6 km/h (2 Bft)
09.12.2016 06:00 -3,4 C 97 % 1033,7 hPa 0,0 l/m S-SW 0,00 h 0 W/m 0,5 km/h (0 Bft)
09.12.2016 07:00 -3,6 C 97 % 1033,7 hPa 0,0 l/m N 0,00 h 8 W/m 0,0 km/h (0 Bft)
09.12.2016 08:00 -3,8 C 97 % 1034,2 hPa 0,0 l/m N 0,42 h 36 W/m 0,0 km/h (0 Bft)
09.12.2016 09:00 -3,5 C 98 % 1034,5 hPa 0,0 l/m N 0,08 h 86 W/m 0,0 km/h (0 Bft)
09.12.2016 10:00 -2,0 C 98 % 1034,6 hPa 0,0 l/m N 0,83 h 204 W/m 0,0 km/h (0 Bft)
09.12.2016 11:00 0,7 C 99 % 1034,2 hPa 0,2 l/m S-SW 1,00 h 303 W/m 3,6 km/h (1 Bft)
09.12.2016 12:00 3,5 C 91 % 1033,8 hPa 0,0 l/m S-SW 0,83 h 274 W/m 4,5 km/h (1 Bft)
09.12.2016 13:00 4,8 C 82 % 1033,3 hPa 0,0 l/m S-SW 0,92 h 254 W/m 8,4 km/h (2 Bft)
09.12.2016 14:00 5,2 C 79 % 1033,1 hPa 0,0 l/m S-SW 0,50 h 125 W/m 4,7 km/h (1 Bft)
09.12.2016 15:00 4,1 C 79 % 1033,0 hPa 0,0 l/m S-SW 0,00 h 29 W/m 2,0 km/h (1 Bft)
09.12.2016 16:00 2,9 C 82 % 1033,0 hPa 0,0 l/m N 0,00 h 8 W/m 0,0 km/h (0 Bft)
09.12.2016 17:00 1,3 C 86 % 1033,3 hPa 0,0 l/m N 0,00 h 0 W/m 0,0 km/h (0 Bft)
09.12.2016 18:00 0,2 C 88 % 1033,2 hPa 0,0 l/m N 0,00 h 0 W/m 0,0 km/h (0 Bft)
09.12.2016 19:00 -0,6 C 89 % 1032,8 hPa 0,0 l/m N 0,00 h 0 W/m 0,0 km/h (0 Bft)
09.12.2016 20:00 -1,1 C 90 % 1032,4 hPa 0,0 l/m N 0,00 h 0 W/m 0,0 km/h (0 Bft)
09.12.2016 21:00 -1,4 C 92 % 1032,2 hPa 0,0 l/m N 0,00 h 0 W/m 0,0 km/h (0 Bft)
09.12.2016 22:00 -1,7 C 93 % 1031,7 hPa 0,0 l/m N 0,00 h 0 W/m 0,0 km/h (0 Bft)
09.12.2016 23:00 -2,1 C 93 % 1031,2 hPa 0,0 l/m N 0,00 h 0 W/m 0,0 km/h (0 Bft)
10.12.2016 00:00 -2,4 C 93 % 1030,5 hPa 0,0 l/m N 0,00 h 0 W/m 0,0 km/h (0 Bft)
10.12.2016 01:00 -2,6 C 94 % 1030,2 hPa 0,0 l/m N 0,00 h 0 W/m 0,0 km/h (0 Bft)
10.12.2016 02:00 -2,8 C 94 % 1030,1 hPa 0,0 l/m N 0,00 h 0 W/m 0,0 km/h (0 Bft)
10.12.2016 03:00 -3,0 C 94 % 1029,8 hPa 0,0 l/m N 0,00 h 0 W/m 0,0 km/h (0 Bft)
10.12.2016 04:00 -3,2 C 94 % 1029,4 hPa 0,0 l/m N 0,00 h 0 W/m 0,0 km/h (0 Bft)
10.12.2016 05:00 -3,4 C 95 % 1029,0 hPa 0,0 l/m N 0,00 h 0 W/m 0,0 km/h (0 Bft)
10.12.2016 06:00 -3,6 C 95 % 1028,9 hPa 0,0 l/m N 0,00 h 0 W/m 0,0 km/h (0 Bft)
10.12.2016 07:00 -3,5 C 95 % 1029,1 hPa 0,0 l/m S-SW 0,00 h 0 W/m 7,8 km/h (2 Bft)
10.12.2016 08:00 -2,9 C 96 % 1029,1 hPa 0,0 l/m S-SW 0,08 h 27 W/m 8,9 km/h (2 Bft)
10.12.2016 09:00 -2,3 C 97 % 1029,2 hPa 0,0 l/m S-SW 0,00 h 74 W/m 5,7 km/h (1 Bft)
10.12.2016 10:00 -1,5 C 98 % 1029,4 hPa 0,0 l/m S-SW 0,25 h 142 W/m 10,5 km/h (2 Bft)
10.12.2016 11:00 0,1 C 98 % 1029,1 hPa 0,0 l/m S 0,83 h 231 W/m 4,1 km/h (1 Bft)
10.12.2016 12:00 0,4 C 98 % 1028,3 hPa 0,0 l/m S 0,83 h 217 W/m 4,5 km/h (1 Bft)
10.12.2016 13:00 3,2 C 94 % 1027,5 hPa 0,0 l/m S 1,00 h 237 W/m 5,9 km/h (2 Bft)
10.12.2016 14:00 3,8 C 84 % 1027,0 hPa 0,0 l/m S-SW 0,75 h 136 W/m 9,4 km/h (2 Bft)
10.12.2016 15:00 3,3 C 81 % 1026,7 hPa 0,0 l/m S-SW 0,00 h 36 W/m 4,0 km/h (1 Bft)
10.12.2016 16:00 2,1 C 83 % 1026,8 hPa 0,0 l/m N 0,08 h 11 W/m 0,5 km/h (0 Bft)
10.12.2016 17:00 0,7 C 85 % 1026,8 hPa 0,0 l/m N 0,00 h 0 W/m 0,0 km/h (0 Bft)
10.12.2016 18:00 -0,8 C 87 % 1026,9 hPa 0,0 l/m N 0,00 h 0 W/m 0,0 km/h (0 Bft)
10.12.2016 19:00 -1,8 C 89 % 1026,9 hPa 0,0 l/m N 0,00 h 0 W/m 0,0 km/h (0 Bft)
10.12.2016 20:00 -2,4 C 91 % 1026,4 hPa 0,0 l/m N 0,00 h 0 W/m 0,0 km/h (0 Bft)
10.12.2016 21:00 -2,6 C 92 % 1025,8 hPa 0,0 l/m N 0,00 h 0 W/m 0,0 km/h (0 Bft)
10.12.2016 22:00 -3,0 C 93 % 1025,2 hPa 0,0 l/m N 0,00 h 0 W/m 0,0 km/h (0 Bft)
10.12.2016 23:00 -3,7 C 93 % 1024,9 hPa 0,0 l/m N 0,00 h 0 W/m 0,0 km/h (0 Bft)
11.12.2016 00:00 -4,2 C 93 % 1024,6 hPa 0,0 l/m N 0,00 h 0 W/m 0,0 km/h (0 Bft)
11.12.2016 01:00 -4,6 C 93 % 1024,0 hPa 0,0 l/m S-SW 0,00 h 0 W/m 0,5 km/h (0 Bft)
11.12.2016 02:00 -4,8 C 94 % 1023,7 hPa 0,0 l/m S-SW 0,00 h 0 W/m 5,1 km/h (1 Bft)
11.12.2016 03:00 -4,5 C 95 % 1023,5 hPa 0,0 l/m S-SW 0,00 h 0 W/m 2,7 km/h (1 Bft)
11.12.2016 04:00 -4,6 C 95 % 1024,0 hPa 0,0 l/m N 0,00 h 0 W/m 0,8 km/h (0 Bft)
11.12.2016 05:00 -4,7 C 96 % 1024,0 hPa 0,0 l/m S-SW 0,00 h 0 W/m 4,3 km/h (1 Bft)
11.12.2016 06:00 -4,5 C 96 % 1024,5 hPa 0,0 l/m S-SW 0,00 h 0 W/m 9,1 km/h (2 Bft)
11.12.2016 07:00 -3,6 C 97 % 1024,6 hPa 0,0 l/m S 0,00 h 5 W/m 11,7 km/h (2 Bft)
11.12.2016 08:00 -3,0 C 97 % 1024,9 hPa 0,0 l/m SO 0,08 h 23 W/m 10,3 km/h (2 Bft)
11.12.2016 09:00 -2,0 C 98 % 1025,2 hPa 0,0 l/m SO 0,00 h 41 W/m 5,3 km/h (1 Bft)
11.12.2016 10:00 -0,3 C 98 % 1025,5 hPa 1,0 l/m W-SW 0,00 h 28 W/m 7,9 km/h (2 Bft)
11.12.2016 11:00 1,9 C 98 % 1025,2 hPa 0,0 l/m W 0,00 h 40 W/m 19,8 km/h (4 Bft)
11.12.2016 12:00 4,0 C 87 % 1024,1 hPa 0,0 l/m W 0,00 h 91 W/m 11,3 km/h (2 Bft)
11.12.2016 13:00 2,4 C 91 % 1024,2 hPa 0,0 l/m N 0,00 h 66 W/m 0,4 km/h (0 Bft)
11.12.2016 14:00 2,6 C 93 % 1024,0 hPa 0,0 l/m W 0,08 h 105 W/m 3,2 km/h (1 Bft)
11.12.2016 15:00 2,1 C 94 % 1024,6 hPa 0,0 l/m W 0,08 h 48 W/m 3,6 km/h (1 Bft)
11.12.2016 16:00 1,9 C 95 % 1025,2 hPa 0,0 l/m W 0,08 h 10 W/m 0,8 km/h (0 Bft)
11.12.2016 17:00 1,7 C 95 % 1025,4 hPa 0,0 l/m W 0,00 h 0 W/m 2,3 km/h (1 Bft)
11.12.2016 18:00 1,6 C 96 % 1025,5 hPa 0,0 l/m W 0,00 h 0 W/m 2,4 km/h (1 Bft)
11.12.2016 19:00 1,5 C 96 % 1025,4 hPa 0,0 l/m N 0,00 h 0 W/m 0,0 km/h (0 Bft)
11.12.2016 20:00 1,3 C 96 % 1025,2 hPa 0,0 l/m W 0,00 h 0 W/m 1,9 km/h (1 Bft)
11.12.2016 21:00 1,2 C 96 % 1025,3 hPa 0,0 l/m W 0,00 h 0 W/m 0,0 km/h (0 Bft)
11.12.2016 22:00 1,1 C 97 % 1025,1 hPa 0,0 l/m W 0,00 h 0 W/m 6,1 km/h (2 Bft)
11.12.2016 23:00 1,4 C 97 % 1025,3 hPa 0,0 l/m N 0,00 h 0 W/m 0,4 km/h (0 Bft)
Min-Datum _ 07.12.16 09.12.16 11.12.16 - - - - 05.12.16
_ Min-Zeit 07:40 14:45 03:05 - - - - 00:05
Minimum _ -5,3 C 77 % 1023,4 hPa - - - - 0,0 km/h (0 Bft)
Max-Datum _ 09.12.16 08.12.16 07.12.16 11.12.16 - 06.12.16 09.12.16 11.12.16
_ Max-Zeit 14:40 03:55 21:05 10:55 - 08:10 11:25 11:55
Maximum _ 5,4 C 100 % 1037,1 hPa 1,0 l/m - 0,08 h 341 W/m 27,4 km/h
W-SW (4 Bft)
Durchschnitt _ -1,4 C 95 % 1030,8 hPa #1,4 l/m S-SW #21:50 h 107 W/m 3,6 km/h (1 Bft)